Content
SEND FEEDBACK

Daily
Averages
Monthly
Summary
United States of America

JENNINGS, LOUISIANA


Home > North America > United States > Louisiana
Elevation: 25 feet     Latitude: 30 14N     Longitude: 092 40W

WEATHER
 
SELECT A DAY
Number of Records: 122,509;   Date Range: 1/3/95 - 7/7/14
 
SHARE

PRINT THIS DATA

[ ← Previous Day ]
WEATHER ALMANAC - FEBRUARY 16, 2013
[ Next Day → ]
[ °C ]   °F
Weather ElementAverageHighLow
Temperature44.8 °F57.2 °F (3:55 pm)37.4 °F (6:54 am)
Dewpoint28.9 °F37.6 °F (12:35 am)19.4 °F (10:50 am)
Humidity56.2 %81 % (9:45 pm)25 % (3:55 pm)
Barometer30.31 in30.40 in (8:50 am)30.27 in (3:55 pm)
Wind Speed7.2 mph17.3 mph (12:56 pm)
Wind Gust23 mph (12:56 pm)
Weather ElementAverage
Visibility10 mi
Wind DirectionWSW (250.6 °)

Weather ElementTotal
Precipitation---
Heating Degree Days17.7 (Base 65)
Averaged from 34 records on February 16, 2013
WEATHER CONDITIONS BREAKOUT
WIND DIRECTION BREAKOUT
WEATHER BY HOUR - FEBRUARY 16, 2013
[ °C ]   °F
Local TimeTemperatureDewpointHumidityBarometerVisibilityWind DirectionWind SpeedGust SpeedPrecipitationEventsConditions
12:35 AM49.1 °F37.6 °F64 %30.28 in10.0 miNNW (340°)9.2 mphOvercast
12:55 AM49.1 °F35.6 °F60 %30.29 in10.0 miNNW (340°)10.4 mph18.4 mphOvercast
1:15 AM48.6 °F33.3 °F56 %30.29 in10.0 miNNW (340°)8.1 mphOvercast
1:35 AM48.6 °F32.0 °F53 %30.30 in10.0 miNNW (340°)11.5 mph18.4 mphOvercast
1:55 AM47.8 °F31.3 °F53 %30.29 in10.0 miNNW (340°)5.8 mphOvercast
2:15 AM46.9 °F30.7 °F53 %30.29 in10.0 miNNW (340°)10.4 mphScattered Clouds
2:35 AM46.6 °F29.3 °F51 %30.29 in10.0 miNNW (340°)10.4 mph17.3 mphScattered Clouds
2:55 AM45.7 °F29.1 °F52 %30.29 in10.0 miNNW (340°)11.5 mph17.3 mphClear
3:15 AM44.6 °F29.1 °F55 %30.28 in10.0 miNNW (340°)6.9 mphClear
3:35 AM43.9 °F28.9 °F56 %30.30 in10.0 miNNW (330°)10.4 mphClear
3:55 AM43.5 °F28.4 °F55 %30.31 in10.0 miNNW (330°)9.2 mphClear
4:15 AM42.8 °F27.5 °F55 %30.32 in10.0 miNNW (330°)10.4 mphClear
4:35 AM42.1 °F27.0 °F55 %30.33 in10.0 miNNW (330°)12.7 mph17.3 mphClear
5:15 AM41.2 °F24.4 °F51 %30.34 in10.0 miNNW (330°)11.5 mph18.4 mphClear
5:35 AM40.1 °F24.1 °F53 %30.34 in10.0 miNNW (330°)6.9 mphClear
5:55 AM39.2 °F24.4 °F56 %30.34 in10.0 miNNW (330°)8.1 mphClear
6:00 AM39.2 °F24.8 °F56 %30.34 in10.0 miNNW (330°)8.1 mphClear
6:54 AM37.4 °F24.8 °F60 %30.37 in10.0 miNNW (340°)8.1 mphClear
7:50 AM39.2 °F24.8 °F56 %30.39 in10.0 miNNW (340°)6.9 mphClear
8:50 AM42.8 °F21.2 °F42 %30.40 in10.0 miNorth (360°)10.4 mphClear
10:50 AM51.8 °F19.4 °F28 %30.40 in10.0 miNNW (340°)11.5 mph19.6 mphClear
12:56 PM55.4 °F24.8 °F31 %30.32 in10.0 miNNW (330°)17.3 mph23.0 mphClear
3:55 PM57.2 °F21.2 °F25 %30.27 in10.0 miNW (320°)12.7 mph21.9 mphClear
4:50 PM55.4 °F21.2 °F26 %30.27 in10.0 miNW (320°)9.2 mphClear
6:50 PM51.8 °F24.8 °F35 %30.29 in10.0 miNW (310°)4.6 mphClear
7:50 PM46.4 °F30.2 °F53 %30.30 in10.0 miCalmClear
8:50 PM44.6 °F32.0 °F61 %30.31 in10.0 miCalmClear
9:45 PM39.2 °F33.8 °F81 %30.31 in10.0 miCalmClear
10:15 PM39.7 °F34.3 °F81 %30.31 in10.0 miCalmClear
10:35 PM40.1 °F34.0 °F79 %30.31 in10.0 miCalmClear
10:55 PM40.5 °F34.7 °F80 %30.30 in10.0 miCalmClear
11:15 PM40.6 °F34.7 °F79 %30.30 in10.0 miSSE (160°)3.5 mphClear
11:35 PM40.1 °F34.2 °F79 %30.30 in10.0 miCalmClear
11:55 PM40.5 °F34.9 °F80 %30.30 in10.0 miCalmClear
Hourly data recorded from KCWF, located miles away from Jennings, Louisiana







STORIES FROM OUR PARTNERS